Location: Mactaquac Provincial Park
(45.9573°N, 66.8897°W)
Time: 13:54:07
(UTC-04:00)

Cosmos 1867 - Visible Passes

Search period start: 06 December 2016 00:00
Search period end: 16 December 2016 00:00
Orbit: 775 x 801 km, 65.0° (Epoch: 05 December)

Date Brightness Start Highest point End Pass type
(mag) Time Alt. Az. Time Alt. Az. Time Alt. Az.
06 Dec 6.0 05:00:26 10° N 05:00:32 10° N 05:01:08 10° NNE visible
06 Dec 5.5 06:42:22 10° NNW 06:46:23 20° NNE 06:50:23 10° ENE visible
07 Dec 5.7 06:10:52 10° NNW 06:14:27 17° NNE 06:18:01 10° ENE visible
08 Dec 5.8 05:39:46 11° N 05:42:28 15° NNE 05:45:33 10° ENE visible
08 Dec 4.4 07:22:10 10° NNW 07:27:29 46° NE 07:32:41 10° ESE visible
09 Dec 5.9 05:09:07 12° N 05:10:28 13° NNE 05:13:02 10° NE visible
09 Dec 4.8 06:50:37 10° NNW 06:55:42 37° NE 07:00:43 10° ESE visible
10 Dec 6.0 04:38:30 12° NNE 04:38:30 12° NNE 04:40:27 10° NE visible
10 Dec 5.1 06:19:10 10° NNW 06:23:53 30° NE 06:28:39 10° E visible
11 Dec 5.3 05:48:34 14° NNW 05:52:01 25° NE 05:56:29 10° E visible
12 Dec 5.5 05:18:00 17° N 05:20:07 21° NNE 05:24:13 10° E visible
12 Dec 3.7 06:59:04 10° NW 07:04:35 81° NE 07:10:01 10° SE visible
13 Dec 5.7 04:47:29 17° NNE 04:48:12 18° NNE 04:51:52 10° ENE visible
13 Dec 4.0 06:28:09 14° NNW 06:32:54 63° NE 06:38:17 10° SE visible
14 Dec 6.0 04:17:00 15° NNE 04:17:00 15° NNE 04:19:25 10° ENE visible
14 Dec 4.3 05:57:40 21° NNW 06:01:10 49° NE 06:06:26 10° ESE visible
15 Dec 6.4 03:46:34 11° NE 03:46:34 11° NE 03:46:55 10° NE visible
15 Dec 4.7 05:27:15 28° N 05:29:25 39° NE 05:34:29 10° ESE visible
15 Dec 4.1 07:07:56 10° NW 07:13:04 42° WSW 07:18:07 10° S visible
